• In Deutschland
  • Länderverzeichnis
  • Für 7 Tage
  • Wassertemperatur
  • Satellitenkarten
  • Wetterkarte
  • Widgets
  • user-avatar
    Anmelden

    Stündliche Wetter Sidi Bu-l-Abbas

    Heute, 24 September, Sonntag

    Zeit Temperatur Niederschläge Wind Luftdruck Luftfeuchtigkeit
    00:00 +23°C° 0 mm 1 m/S 723 mmHg 80%
    01:00 +23°C° 0 mm 1 m/S 723 mmHg 82%
    02:00 +22°C° 0 mm 1 m/S 723 mmHg 84%
    03:00 +20°C° 0 mm 0 m/S 723 mmHg 86%
    04:00 +20°C° 0 mm 0 m/S 723 mmHg 87%
    05:00 +19°C° 0 mm 0 m/S 723 mmHg 88%
    06:00 +19°C° 0 mm 0 m/S 723 mmHg 88%
    07:00 +22°C° 0 mm 1 m/S 723 mmHg 79%
    08:00 +24°C° 0 mm 1 m/S 724 mmHg 69%
    09:00 +25°C° 0 mm 1 m/S 724 mmHg 60%
    10:00 +27°C° 0 mm 2 m/S 724 mmHg 53%
    11:00 +28°C° 0 mm 2 m/S 724 mmHg 45%
    12:00 +30°C° 0 mm 3 m/S 724 mmHg 38%
    13:00 +30°C° 0 mm 3 m/S 724 mmHg 37%
    14:00 +30°C° 0 mm 4 m/S 724 mmHg 37%
    15:00 +32°C° 0 mm 4 m/S 723 mmHg 36%
    16:00 +30°C° 0 mm 4 m/S 723 mmHg 40%
    17:00 +29°C° 0 mm 3 m/S 723 mmHg 45%
    18:00 +28°C° 0 mm 3 m/S 723 mmHg 49%
    19:00 +27°C° 0 mm 2 m/S 723 mmHg 54%
    20:00 +26°C° 0 mm 2 m/S 723 mmHg 58%
    21:00 +25°C° 0 mm 1 m/S 724 mmHg 62%
    22:00 +25°C° 0 mm 1 m/S 724 mmHg 66%
    23:00 +24°C° 0 mm 1 m/S 724 mmHg 69%

    Morgen, 25 September, Montag

    Zeit Temperatur Niederschläge Wind Luftdruck Luftfeuchtigkeit
    00:00 +21°C° 0 mm 0 m/S 723 mmHg 72%
    01:00 +21°C° 0 mm 0 m/S 723 mmHg 74%
    02:00 +21°C° 0 mm 0 m/S 723 mmHg 75%
    03:00 +20°C° 0 mm 0 m/S 723 mmHg 77%
    04:00 +20°C° 0 mm 0 m/S 722 mmHg 78%
    05:00 +19°C° 0 mm 0 m/S 722 mmHg 78%
    06:00 +19°C° 0 mm 0 m/S 722 mmHg 79%
    07:00 +21°C° 0 mm 0 m/S 723 mmHg 69%
    08:00 +24°C° 0 mm 1 m/S 723 mmHg 59%
    09:00 +26°C° 0 mm 1 m/S 724 mmHg 48%
    10:00 +27°C° 0 mm 1 m/S 724 mmHg 42%
    11:00 +29°C° 0 mm 2 m/S 724 mmHg 36%
    12:00 +30°C° 0 mm 3 m/S 724 mmHg 29%
    13:00 +30°C° 0 mm 3 m/S 723 mmHg 28%
    14:00 +31°C° 0 mm 3 m/S 723 mmHg 28%
    15:00 +32°C° 0 mm 4 m/S 723 mmHg 27%
    16:00 +30°C° 0 mm 3 m/S 723 mmHg 30%
    17:00 +29°C° 0 mm 3 m/S 722 mmHg 33%
    18:00 +28°C° 0 mm 2 m/S 722 mmHg 36%
    19:00 +27°C° 0 mm 1 m/S 722 mmHg 39%
    20:00 +26°C° 0 mm 1 m/S 723 mmHg 42%
    21:00 +23°C° 0 mm 0 m/S 723 mmHg 45%
    22:00 +23°C° 0 mm 0 m/S 723 mmHg 46%
    23:00 +22°C° 0 mm 0 m/S 722 mmHg 46%

    übermorgen, 26 September, Dienstag

    Zeit Temperatur Niederschläge Wind Luftdruck Luftfeuchtigkeit
    00:00 +24°C° 0 mm 1 m/S 722 mmHg 46%
    01:00 +23°C° 0 mm 1 m/S 722 mmHg 46%
    02:00 +23°C° 0 mm 1 m/S 722 mmHg 46%
    03:00 +22°C° 0 mm 1 m/S 721 mmHg 46%
    04:00 +22°C° 0 mm 1 m/S 721 mmHg 45%
    05:00 +19°C° 0 mm 0 m/S 721 mmHg 44%
    06:00 +19°C° 0 mm 0 m/S 721 mmHg 44%
    07:00 +21°C° 0 mm 0 m/S 722 mmHg 37%
    08:00 +24°C° 0 mm 0 m/S 722 mmHg 30%
    09:00 +26°C° 0 mm 0 m/S 723 mmHg 24%
    10:00 +29°C° 0 mm 1 m/S 723 mmHg 22%
    11:00 +30°C° 0 mm 2 m/S 723 mmHg 20%
    12:00 +31°C° 0 mm 2 m/S 723 mmHg 18%
    13:00 +31°C° 0 mm 3 m/S 723 mmHg 19%
    14:00 +32°C° 0 mm 4 m/S 722 mmHg 20%
    15:00 +32°C° 0 mm 4 m/S 722 mmHg 21%
    16:00 +30°C° 0 mm 4 m/S 722 mmHg 24%
    17:00 +29°C° 0 mm 3 m/S 722 mmHg 28%
    18:00 +28°C° 0 mm 2 m/S 722 mmHg 31%
    19:00 +27°C° 0 mm 2 m/S 722 mmHg 34%
    20:00 +26°C° 0 mm 1 m/S 723 mmHg 38%
    21:00 +25°C° 0 mm 1 m/S 723 mmHg 41%
    22:00 +25°C° 0 mm 1 m/S 723 mmHg 43%
    23:00 +24°C° 0 mm 1 m/S 723 mmHg 45%

    27 September, Mittwoch

    Zeit Temperatur Niederschläge Wind Luftdruck Luftfeuchtigkeit
    00:00 +24°C° 0 mm 1 m/S 722 mmHg 47%
    01:00 +23°C° 0 mm 1 m/S 722 mmHg 49%
    02:00 +22°C° 0 mm 1 m/S 722 mmHg 51%
    03:00 +22°C° 0 mm 1 m/S 722 mmHg 53%
    04:00 +21°C° 0 mm 1 m/S 722 mmHg 55%
    05:00 +21°C° 0 mm 1 m/S 722 mmHg 57%
    06:00 +21°C° 0 mm 1 m/S 722 mmHg 59%
    07:00 +23°C° 0 mm 1 m/S 723 mmHg 51%
    08:00 +25°C° 0 mm 1 m/S 724 mmHg 44%
    09:00 +27°C° 0 mm 1 m/S 724 mmHg 37%
    10:00 +28°C° 0 mm 1 m/S 724 mmHg 33%
    11:00 +29°C° 0 mm 2 m/S 724 mmHg 29%
    12:00 +30°C° 0 mm 3 m/S 724 mmHg 26%
    13:00 +31°C° 0 mm 3 m/S 724 mmHg 26%
    14:00 +32°C° 0 mm 4 m/S 724 mmHg 27%
    15:00 +32°C° 0 mm 5 m/S 724 mmHg 28%
    16:00 +30°C° 0 mm 4 m/S 724 mmHg 32%
    17:00 +29°C° 0 mm 4 m/S 724 mmHg 37%
    18:00 +27°C° 0 mm 4 m/S 724 mmHg 41%
    19:00 +27°C° 0 mm 3 m/S 724 mmHg 45%
    20:00 +26°C° 0 mm 2 m/S 724 mmHg 49%
    21:00 +25°C° 0 mm 2 m/S 725 mmHg 53%
    22:00 +24°C° 0 mm 2 m/S 725 mmHg 56%
    23:00 +24°C° 0 mm 1 m/S 725 mmHg 58%

    28 September, Donnerstag

    Zeit Temperatur Niederschläge Wind Luftdruck Luftfeuchtigkeit
    00:00 +23°C° 0 mm 1 m/S 725 mmHg 61%
    01:00 +23°C° 0 mm 1 m/S 724 mmHg 64%
    02:00 +22°C° 0 mm 1 m/S 724 mmHg 66%
    03:00 +22°C° 0 mm 1 m/S 724 mmHg 68%
    04:00 +21°C° 0 mm 1 m/S 724 mmHg 70%
    05:00 +21°C° 0 mm 1 m/S 725 mmHg 71%
    06:00 +21°C° 0 mm 1 m/S 725 mmHg 73%
    07:00 +22°C° 0 mm 1 m/S 725 mmHg 64%
    08:00 +24°C° 0 mm 1 m/S 726 mmHg 56%
    09:00 +26°C° 0 mm 1 m/S 726 mmHg 47%
    10:00 +27°C° 0 mm 2 m/S 726 mmHg 42%
    11:00 +28°C° 0 mm 3 m/S 726 mmHg 36%
    12:00 +30°C° 0 mm 3 m/S 726 mmHg 31%
    13:00 +30°C° 0 mm 4 m/S 725 mmHg 31%
    14:00 +30°C° 0 mm 5 m/S 725 mmHg 31%
    15:00 +32°C° 0 mm 5 m/S 725 mmHg 30%
    16:00 +29°C° 0 mm 5 m/S 725 mmHg 34%
    17:00 +28°C° 0 mm 5 m/S 725 mmHg 38%
    18:00 +27°C° 0 mm 5 m/S 725 mmHg 41%
    19:00 +26°C° 0 mm 4 m/S 725 mmHg 45%
    20:00 +25°C° 0 mm 3 m/S 725 mmHg 48%
    21:00 +24°C° 0 mm 2 m/S 725 mmHg 52%
    22:00 +24°C° 0 mm 2 m/S 725 mmHg 55%
    23:00 +23°C° 0 mm 2 m/S 725 mmHg 58%

    29 September, Freitag

    Zeit Temperatur Niederschläge Wind Luftdruck Luftfeuchtigkeit
    00:00 +21°C° 0 mm 2 m/S 725 mmHg 61%
    01:00 +21°C° 0 mm 2 m/S 725 mmHg 63%
    02:00 +21°C° 0 mm 1 m/S 724 mmHg 66%
    03:00 +21°C° 0 mm 1 m/S 724 mmHg 69%
    04:00 +20°C° 0 mm 1 m/S 724 mmHg 71%
    05:00 +20°C° 0 mm 1 m/S 724 mmHg 73%
    06:00 +19°C° 0 mm 1 m/S 724 mmHg 75%
    07:00 +21°C° 0 mm 1 m/S 725 mmHg 67%
    08:00 +22°C° 0 mm 1 m/S 725 mmHg 59%
    09:00 +24°C° 0 mm 2 m/S 725 mmHg 51%
    10:00 +25°C° 0 mm 2 m/S 725 mmHg 45%
    11:00 +26°C° 0 mm 3 m/S 725 mmHg 39%
    12:00 +28°C° 0 mm 3 m/S 725 mmHg 33%
    13:00 +28°C° 0 mm 4 m/S 724 mmHg 33%
    14:00 +28°C° 0 mm 4 m/S 724 mmHg 34%
    15:00 +28°C° 0 mm 5 m/S 724 mmHg 34%
    16:00 +27°C° 0 mm 4 m/S 724 mmHg 39%
    17:00 +26°C° 0 mm 4 m/S 724 mmHg 44%
    18:00 +25°C° 0 mm 4 m/S 724 mmHg 48%
    19:00 +24°C° 0 mm 3 m/S 724 mmHg 52%
    20:00 +24°C° 0 mm 2 m/S 724 mmHg 56%
    21:00 +23°C° 0 mm 2 m/S 725 mmHg 61%
    22:00 +22°C° 0 mm 1 m/S 724 mmHg 64%
    23:00 +22°C° 0 mm 1 m/S 724 mmHg 67%
    Mehr zeigen